DELTA 1 DEB, 9835

Orbit data source: Space-Track

DELTA 1 DEB, 9835 is space debris in LEO originally from a launch on Tue, 06 Nov 1973 UTC launched from the Air Force Western Test Range (AFWTR). Debris objects in space refer to the collection of defunct objects orbiting the Earth. Examples of debris include non-operational satellites, rocket bodies, and fragments generated from explosions, collisions, or faulty payload assembly.

Loading next visibility...
Identifier
9835, 1973-086GD
Orbit
LEO
Country
Flag of USUS
Related business
Manufacturer
Unknown
Mission
Spacecraft
Bus & Motor
Unknown
Mass
Unknown
Launch date (UTC)
1973-11-06 (53 years ago)
Launch vehicle
Unknown
Launch site
Air Force Western Test Range (AFWTR)
Object type
Payload
Rocket body
Debris
Shape & HBR
Unknown shape, 0.1 m
Radar Cross Section
Medium (>0.1 m² and <1 m²)

Expand to show TLE details & history
Last TLE update: 2 days ago

TLE from 2 days ago
0 DELTA 1 DEB
1 09835U 73086GD  26252.70411237  .00000023  00000-0  92115-3 0  9997
2 09835 101.3249  48.4469 0666853 282.2841  83.6994 11.33509370596149
Epoch: 2026-09-09T16:53Z
TLE epoch observation values (Epoch: 2026-09-09T16:53:55.308Z)
Latitude
13.32685°
Longitude
163.50752°
Altitude
1,970.531 km
Speed
6.922 km/s
True Right ascension
03h 02m 57s
True Declination
13° 15' 40"
Sunlit
Object was in daylight at epoch
Visualization orbit readout
Latitude
Unknown
Longitude
Unknown
Altitude
Unknown
Speed
Unknown
Apparent Right ascension
Unknown
Apparent Declination
Unknown
Sunlit
N/A
Visualization observer readout
Local Sidereal Time
14:57:50
Azimuth
Unknown
Elevation
Unknown
Doppler factor
Unknown
Orbital elements
Apogee altitude
2,548.753 km
Perigee altitude
1,432.599 km
Semi-major axis
8,368.813 km
Eccentricity
0.06669
Inclination
101.3249°
RAAN
48.4469°
Arg. of periapsis
282.2841°
True anomaly
91.34216°
Mean anomaly
83.6994°
Eccentric anomaly
87.5166°
Mean motion
2.83496 °/min
Orbital period
126.99 mins
BSTAR
0.00092115
Loading maneuver chart data...
Computing Atmospheric mass density...
Loading historical data...
Loading historical data...
Loading historical data...
Loading historical data...
Loading historical data...
Loading historical data...
Loading historical data...

Documentation

Showing up to 5 results
|